Printer-friendly version

IAU Minor Planet Center

Minor Planet Center

MPEC 2006-O08 : 2006 OA1

The following Minor Planet Electronic Circular may be linked-to from your own Web pages, but must not otherwise be redistributed electronically.


Read MPEC 2006-O07 Read MPEC 2006-O09


M.P.E.C. 2006-O08                                Issued 2006 July 20, 16:39 UT

     The Minor Planet Electronic Circulars contain information on unusual
         minor planets and routine data on comets.  They are published
   on behalf of Commission 20 of the International Astronomical Union by the
          Minor Planet Center, Smithsonian Astrophysical Observatory,
                          Cambridge, MA 02138, U.S.A.

                  Supported in part by the Brinson Foundation
                  Supported in part by the TABASGO Foundation
             Prepared using the Tamkin Foundation Computer Network

                              MPC@CFA.HARVARD.EDU
          URL http://cfa-www.harvard.edu/iau/mpc.html  ISSN 1523-6714

                                   2006 OA1

Observations:
     K06O01A* C2006 07 18.55314 22 05 11.79 -33 45 53.6          18.6 V EO008E12
     K06O01A  C2006 07 18.56354 22 05 17.08 -33 49 26.5          18.6 V EO008E12
     K06O01A  C2006 07 18.57392 22 05 22.27 -33 53 00.3          18.6 V EO008E12
     K06O01A  C2006 07 18.58433 22 05 27.49 -33 56 32.4          18.7 V EO008E12
     K06O01A  C2006 07 18.63672 22 05 53.66 -34 14 24.2          19.1 V EO008E12
     K06O01A  C2006 07 18.64671 22 05 58.74 -34 17 50.1          18.6 V EO008E12
     K06O01A  C2006 07 18.65681 22 06 03.78 -34 21 15.8          18.6 V EO008E12
     K06O01A  C2006 07 18.66768 22 06 09.25 -34 24 57.3          19.1 V EO008E12
     K06O01A  C2006 07 18.67921 22 06 14.94 -34 28 50.9          19.0 V EO008E12
     K06O01A  C2006 07 18.69458 22 06 22.68 -34 34 04.7          19.2 V EO008E12
     K06O01A  C2006 07 18.70981 22 06 30.36 -34 39 14.5          19.0 V EO008E12
     K06O01A  C2006 07 18.72480 22 06 37.94 -34 44 19.9          19.2 V EO008E12
     K06O01A  C2006 07 18.79660 22 07 14.66 -35 08 33.2          19.9 V EO008E12
     K06O01A  C2006 07 18.79827 22 07 15.54 -35 09 06.7          19.9 V EO008E12
     K06O01A  C2006 07 18.79991 22 07 16.34 -35 09 41.1          19.0 V EO008E12
     K06O01A  C2006 07 18.80152 22 07 17.18 -35 10 12.5          19.6 V EO008E12
     K06O01A  C2006 07 18.81044 22 07 21.82 -35 13 14.7          19.0 V EO008E12
     K06O01A  C2006 07 18.81252 22 07 22.83 -35 13 55.4          19.0 V EO008E12
     K06O01A  C2006 07 19.68310 22 15 54.64 -40 09 34.8          18.6 V EO008E12
     K06O01A  C2006 07 19.69035 22 15 58.82 -40 12 01.0          18.8 V EO008E12
     K06O01A  C2006 07 19.69390 22 16 00.91 -40 13 13.7          19.9 V EO008E12
     K06O01A  C2006 07 20.64992 22 26 43.18 -45 32 05.7          18.9 V EO008E12
     K06O01A  C2006 07 20.65311 22 26 45.34 -45 33 09.5          18.8 V EO008E12
     K06O01A  C2006 07 20.65895 22 26 49.38 -45 35 03.7          18.7 V EO008E12
     K06O01A  C2006 07 20.66184 22 26 51.25 -45 36 01.4          18.7 V EO008E12

Observer details:
E12 Siding Spring Survey.  Observer G. J. Garradd.  Measurers E. C. Beshore,
    E. J. Christensen, G. J. Garradd, A. R. Gibbs, A. D. Grauer, R. E. Hill,
    R. A. Kowalski, S. M. Larson, R. H. McNaught.  0.5-m Uppsala Schmidt + CCD.

Orbital elements:
2006 OA1                                                 Earth MOID = 0.1000 AU
Epoch 2006 July 4.0 TT = JDT 2453920.5                  MPC
M 319.18940              (2000.0)            P               Q
n   0.60802571     Peri.  236.93895     +0.84828234     +0.04391064
a   1.3799227      Node   115.21172     +0.00766277     +0.99543386
e   0.2643656      Incl.   35.68187     -0.52948876     +0.08475421
P   1.62           H   22.3           G   0.15
From 25 observations 2006 July 18-20.

Ephemeris:
2006 OA1                 a,e,i = 1.38, 0.26, 36                  q = 1.0151
Date    TT    R. A. (2000) Decl.     Delta      r     Elong.  Phase     V
2006 07 14    21 34.87   -10 26.1    0.124    1.124   148.5    28.1    19.3
2006 07 24    23 20.55   -61 47.6    0.120    1.092   127.1    47.9    19.7
2006 08 03    04 53.49   -74 53.3    0.195    1.065    99.6    70.0    21.3
2006 08 13    06 53.46   -68 21.0    0.287    1.042    87.7    76.3    22.3

Gareth V. Williams           (C) Copyright 2006 MPC           M.P.E.C. 2006-O08

Read MPEC 2006-O07 Read MPEC 2006-O09


Our Web policy. Index to the CBAT/MPC/ICQ pages.


Valid HTML 4.01!